Location: Newark
(40.0251°N, 85.2247°W)
Time: 16:19:25
(UTC+00:00)

Hubble Space Telescope - Pass Details

Date: 15 December 2019
Orbit: 536 x 540 km, 28.5° (Epoch: 24 January)

Event Time Altitude Azimuth Distance (km) Brightness Sun altitude
Exits shadow 11:25:37 - 218° (SW) 2,322 3.8 -16.6°
Reaches altitude 10° 11:27:47 10° 198° (SSW) 1,783 3.4 -16.2°
Maximum altitude 11:29:45 13° 169° (S) 1,590 3.5 -15.8°
Drops below altitude 10° 11:31:44 10° 140° (SE) 1,785 4.3 -15.5°
Sets 11:35:02 0° 113° (ESE) 2,677 6.2 -14.9°
